Volver al catálogo

STARLINK-32544

ActivoComunicacionesVLEO
NORAD 61917·PAYLOAD·🇺🇸 United States

Lanzado Nov 11, 2024 desde Cape Canaveral Space Force Station

Loading…

Próximos Pases (próximas 24 horas)

TLE

ActualizadoSource: CelesTrak SupGP

Época: Sep 14, 2026, 22:31 UTC

1 61917C 24207F   26257.93868056  .00018173  00000+0  65828-3 0  2574
2 61917  43.0001 292.8340 0001575 264.6670 207.9856 15.27565845    17

Sigue STARLINK-32544 en tiempo real con AllMySat

Download on the App Store